Time,TemperatureF,DewpointF,PressureIn,WindDirection,WindDirectionDegrees,WindSpeedMPH,WindSpeedGustMPH,Humidity,HourlyPrecipIn,Conditions,Clouds,dailyrainin,SolarRadiationWatts/m^2,SoftwareType,DateUTC
2013-01-25 00:03:00,10.6,0.9,30.39,NW,325,0.0,11.0,64,0.00,,,0.00,0.0,meteohub,2013-01-25 05:03:00,
2013-01-25 00:06:00,10.6,0.9,30.39,WNW,297,7.0,11.0,64,0.00,,,0.00,0.0,meteohub,2013-01-25 05:06:00,
2013-01-25 00:11:00,10.4,0.7,30.39,WSW,242,3.0,12.0,64,0.00,,,0.00,0.0,meteohub,2013-01-25 05:11:00,
2013-01-25 00:17:00,10.4,0.3,30.40,ESE,111,0.0,12.0,63,0.00,,,0.00,0.0,meteohub,2013-01-25 05:17:00,
2013-01-25 00:22:00,10.2,0.1,30.40,North,0,0.0,12.0,63,0.00,,,0.00,0.0,meteohub,2013-01-25 05:22:00,
2013-01-25 00:27:00,10.2,0.1,30.40,ESE,123,1.0,12.0,63,0.00,,,0.00,0.0,meteohub,2013-01-25 05:27:00,
2013-01-25 00:32:00,10.2,0.1,30.40,NW,311,0.0,12.0,63,0.00,,,0.00,0.0,meteohub,2013-01-25 05:32:00,
2013-01-25 00:37:00,10.0,0.0,30.40,West,271,1.0,10.0,63,0.00,,,0.00,0.0,meteohub,2013-01-25 05:37:00,
2013-01-25 00:42:00,10.0,0.0,30.40,WNW,292,3.0,10.0,63,0.00,,,0.00,0.0,meteohub,2013-01-25 05:42:00,
2013-01-25 00:47:00,9.9,-0.2,30.40,NW,306,1.0,14.0,63,0.00,,,0.00,0.0,meteohub,2013-01-25 05:47:00,
2013-01-25 00:52:00,9.9,-0.2,30.40,WNW,296,2.0,14.0,63,0.00,,,0.00,0.0,meteohub,2013-01-25 05:52:00,
2013-01-25 00:57:00,9.9,-0.6,30.40,NW,317,1.0,14.0,62,0.00,,,0.00,0.0,meteohub,2013-01-25 05:57:00,
2013-01-25 01:02:00,9.9,-0.6,30.40,WNW,300,3.0,14.0,62,0.00,,,0.00,0.0,meteohub,2013-01-25 06:02:00,
2013-01-25 01:08:00,9.9,-0.6,30.40,WNW,301,3.0,14.0,62,0.00,,,0.00,0.0,meteohub,2013-01-25 06:08:00,
2013-01-25 01:13:00,9.9,-0.6,30.40,NW,312,7.0,12.0,62,0.00,,,0.00,0.0,meteohub,2013-01-25 06:13:00,
2013-01-25 01:18:00,9.7,-0.8,30.40,WNW,291,7.0,11.0,62,0.00,,,0.00,0.0,meteohub,2013-01-25 06:18:00,
2013-01-25 01:24:00,9.5,-1.3,30.40,NNW,335,0.0,11.0,61,0.00,,,0.00,0.0,meteohub,2013-01-25 06:24:00,
2013-01-25 01:29:00,9.3,-1.5,30.41,WNW,283,0.0,12.0,61,0.00,,,0.00,0.0,meteohub,2013-01-25 06:29:00,
2013-01-25 01:34:00,9.3,-1.5,30.41,WSW,246,2.0,12.0,61,0.00,,,0.00,0.0,meteohub,2013-01-25 06:34:00,
2013-01-25 01:39:00,9.1,-1.7,30.41,WNW,290,7.0,12.0,61,0.00,,,0.00,0.0,meteohub,2013-01-25 06:39:00,
2013-01-25 01:45:00,9.1,-1.7,30.41,SW,228,0.0,12.0,61,0.00,,,0.00,0.0,meteohub,2013-01-25 06:45:00,
2013-01-25 01:50:00,9.0,-1.7,30.41,WNW,289,3.0,11.0,61,0.00,,,0.00,0.0,meteohub,2013-01-25 06:50:00,
2013-01-25 01:55:00,9.0,-1.7,30.41,WNW,286,1.0,10.0,61,0.00,,,0.00,0.0,meteohub,2013-01-25 06:55:00,
2013-01-25 02:00:00,9.0,-1.7,30.41,WNW,298,0.0,10.0,61,0.00,,,0.00,0.0,meteohub,2013-01-25 07:00:00,
2013-01-25 02:06:00,9.0,-1.7,30.41,North,11,1.0,10.0,61,0.00,,,0.00,0.0,meteohub,2013-01-25 07:06:00,
2013-01-25 02:11:00,8.8,-1.8,30.41,WNW,291,5.0,11.0,61,0.00,,,0.00,0.0,meteohub,2013-01-25 07:11:00,
2013-01-25 02:16:00,8.8,-1.8,30.40,NNW,329,1.0,11.0,61,0.00,,,0.00,0.0,meteohub,2013-01-25 07:16:00,
2013-01-25 02:22:00,8.8,-1.8,30.41,WNW,302,2.0,16.0,61,0.00,,,0.00,0.0,meteohub,2013-01-25 07:22:00,
2013-01-25 02:27:00,8.8,-1.8,30.41,West,279,10.0,20.0,61,0.00,,,0.00,0.0,meteohub,2013-01-25 07:27:00,
2013-01-25 02:32:00,9.0,-1.7,30.41,NW,312,4.0,20.0,61,0.00,,,0.00,0.0,meteohub,2013-01-25 07:32:00,
2013-01-25 02:37:00,9.0,-1.7,30.41,WNW,284,4.0,20.0,61,0.00,,,0.00,0.0,meteohub,2013-01-25 07:37:00,
2013-01-25 02:42:00,9.0,-1.7,30.41,WNW,286,4.0,20.0,61,0.00,,,0.00,0.0,meteohub,2013-01-25 07:42:00,
2013-01-25 02:47:00,9.0,-1.7,30.41,West,279,5.0,18.0,61,0.00,,,0.00,0.0,meteohub,2013-01-25 07:47:00,
2013-01-25 02:52:00,8.8,-1.8,30.41,West,265,2.0,18.0,61,0.00,,,0.00,0.0,meteohub,2013-01-25 07:52:00,
2013-01-25 02:57:00,8.8,-1.8,30.41,WNW,288,0.0,18.0,61,0.00,,,0.00,0.0,meteohub,2013-01-25 07:57:00,
2013-01-25 03:02:00,8.8,-1.8,30.42,North,0,5.0,18.0,61,0.00,,,0.00,0.0,meteohub,2013-01-25 08:02:00,
2013-01-25 03:07:00,8.6,-2.0,30.42,NW,319,5.0,18.0,61,0.00,,,0.00,0.0,meteohub,2013-01-25 08:07:00,
2013-01-25 03:12:00,8.4,-2.2,30.41,NW,306,4.0,21.0,61,0.00,,,0.00,0.0,meteohub,2013-01-25 08:12:00,
2013-01-25 03:17:00,8.2,-2.4,30.41,West,259,0.0,21.0,61,0.00,,,0.00,0.0,meteohub,2013-01-25 08:17:00,
2013-01-25 03:22:00,8.2,-2.4,30.41,West,261,3.0,12.0,61,0.00,,,0.00,0.0,meteohub,2013-01-25 08:22:00,
2013-01-25 03:27:00,8.1,-2.2,30.41,WNW,298,0.0,12.0,62,0.00,,,0.00,0.0,meteohub,2013-01-25 08:27:00,
2013-01-25 03:33:00,8.1,-2.2,30.41,NW,321,1.0,12.0,62,0.00,,,0.00,0.0,meteohub,2013-01-25 08:33:00,
2013-01-25 03:38:00,7.9,-2.4,30.41,West,266,0.0,12.0,62,0.00,,,0.00,0.0,meteohub,2013-01-25 08:38:00,
2013-01-25 03:43:00,7.7,-2.2,30.41,West,279,1.0,12.0,63,0.00,,,0.00,0.0,meteohub,2013-01-25 08:43:00,
2013-01-25 03:49:00,7.5,-2.0,30.41,NW,307,6.0,9.0,64,0.00,,,0.00,0.0,meteohub,2013-01-25 08:49:00,
2013-01-25 03:54:00,7.5,-2.0,30.40,WNW,291,6.0,9.0,64,0.00,,,0.00,0.0,meteohub,2013-01-25 08:54:00,
2013-01-25 03:59:00,7.3,-2.2,30.40,WNW,298,3.0,10.0,64,0.00,,,0.00,0.0,meteohub,2013-01-25 08:59:00,
2013-01-25 04:05:00,7.3,-2.0,30.41,WNW,295,2.0,10.0,65,0.00,,,0.00,0.0,meteohub,2013-01-25 09:05:00,
2013-01-25 04:10:00,7.3,-2.2,30.41,WNW,287,2.0,15.0,64,0.00,,,0.00,0.0,meteohub,2013-01-25 09:10:00,
2013-01-25 04:16:00,7.3,-2.0,30.41,WNW,299,2.0,15.0,65,0.00,,,0.00,0.0,meteohub,2013-01-25 09:16:00,
2013-01-25 04:21:00,7.2,-2.2,30.42,NW,308,2.0,15.0,65,0.00,,,0.00,0.0,meteohub,2013-01-25 09:21:00,
2013-01-25 04:26:00,7.2,-2.2,30.42,NW,307,3.0,11.0,65,0.00,,,0.00,0.0,meteohub,2013-01-25 09:26:00,
2013-01-25 04:32:00,7.2,-2.2,30.42,WNW,302,6.0,11.0,65,0.00,,,0.00,0.0,meteohub,2013-01-25 09:32:00,
2013-01-25 04:37:00,7.2,-2.2,30.42,WNW,293,5.0,11.0,65,0.00,,,0.00,0.0,meteohub,2013-01-25 09:37:00,
2013-01-25 04:42:00,7.0,-2.6,30.42,West,277,6.0,11.0,64,0.00,,,0.00,0.0,meteohub,2013-01-25 09:42:00,
2013-01-25 04:47:00,6.6,-2.9,30.42,NW,305,9.0,11.0,64,0.00,,,0.00,0.0,meteohub,2013-01-25 09:47:00,
2013-01-25 04:52:00,6.6,-2.9,30.42,WNW,289,4.0,11.0,64,0.00,,,0.00,0.0,meteohub,2013-01-25 09:52:00,
2013-01-25 04:57:00,6.4,-2.7,30.42,West,277,1.0,11.0,65,0.00,,,0.00,0.0,meteohub,2013-01-25 09:57:00,
2013-01-25 05:02:00,6.3,-3.3,30.42,West,275,4.0,11.0,64,0.00,,,0.00,0.0,meteohub,2013-01-25 10:02:00,
2013-01-25 05:07:00,6.3,-2.9,30.42,ESE,103,2.0,10.0,65,0.00,,,0.00,0.0,meteohub,2013-01-25 10:07:00,
2013-01-25 05:12:00,6.1,-3.1,30.41,West,281,2.0,10.0,65,0.00,,,0.00,0.0,meteohub,2013-01-25 10:12:00,
2013-01-25 05:17:00,6.1,-3.1,30.41,SW,226,0.0,10.0,65,0.00,,,0.00,0.0,meteohub,2013-01-25 10:17:00,
2013-01-25 05:22:00,5.9,-3.3,30.41,North,355,2.0,11.0,65,0.00,,,0.00,0.0,meteohub,2013-01-25 10:22:00,
2013-01-25 05:27:00,5.7,-3.5,30.41,NNW,340,0.0,11.0,65,0.00,,,0.00,0.0,meteohub,2013-01-25 10:27:00,
2013-01-25 05:32:00,5.7,-3.5,30.41,NW,305,3.0,11.0,65,0.00,,,0.00,0.0,meteohub,2013-01-25 10:32:00,
2013-01-25 05:37:00,5.5,-3.6,30.41,NNE,31,6.0,11.0,65,0.00,,,0.00,0.0,meteohub,2013-01-25 10:37:00,
2013-01-25 05:42:00,5.5,-3.3,30.41,NW,321,7.0,9.0,66,0.00,,,0.00,0.0,meteohub,2013-01-25 10:42:00,
2013-01-25 05:47:00,5.5,-3.3,30.41,NW,321,6.0,9.0,66,0.00,,,0.00,0.0,meteohub,2013-01-25 10:47:00,
2013-01-25 05:52:00,5.5,-3.3,30.41,WNW,289,1.0,9.0,66,0.00,,,0.00,0.0,meteohub,2013-01-25 10:52:00,
2013-01-25 05:58:00,5.4,-3.5,30.41,West,281,2.0,11.0,66,0.00,,,0.00,0.0,meteohub,2013-01-25 10:58:00,
2013-01-25 06:03:00,5.4,-3.5,30.40,West,277,0.0,11.0,66,0.00,,,0.00,0.0,meteohub,2013-01-25 11:03:00,
2013-01-25 06:08:00,5.4,-3.5,30.41,WNW,290,9.0,11.0,66,0.00,,,0.00,0.0,meteohub,2013-01-25 11:08:00,
2013-01-25 06:14:00,5.4,-3.3,30.41,WNW,302,0.0,11.0,67,0.00,,,0.00,0.0,meteohub,2013-01-25 11:14:00,
2013-01-25 06:19:00,5.4,-3.3,30.41,SSW,203,1.0,11.0,67,0.00,,,0.00,0.0,meteohub,2013-01-25 11:19:00,
2013-01-25 06:25:00,5.4,-3.3,30.41,NW,315,5.0,11.0,67,0.00,,,0.00,0.0,meteohub,2013-01-25 11:25:00,
2013-01-25 06:30:00,5.2,-3.5,30.40,NNW,340,0.0,11.0,67,0.00,,,0.00,0.0,meteohub,2013-01-25 11:30:00,
2013-01-25 06:35:00,5.2,-3.5,30.40,NW,307,6.0,14.0,67,0.00,,,0.00,0.0,meteohub,2013-01-25 11:35:00,
2013-01-25 06:40:00,5.2,-3.1,30.41,NW,315,4.0,14.0,68,0.00,,,0.00,0.0,meteohub,2013-01-25 11:40:00,
2013-01-25 06:46:00,5.2,-3.1,30.41,West,277,0.0,14.0,68,0.00,,,0.00,0.0,meteohub,2013-01-25 11:46:00,
2013-01-25 06:51:00,5.2,-3.1,30.41,WSW,258,5.0,14.0,68,0.00,,,0.00,0.0,meteohub,2013-01-25 11:51:00,
2013-01-25 06:57:00,5.2,-3.1,30.41,West,272,4.0,12.0,68,0.00,,,0.00,0.0,meteohub,2013-01-25 11:57:00,
2013-01-25 07:02:00,5.2,-3.1,30.41,WNW,298,0.0,12.0,68,0.00,,,0.00,0.0,meteohub,2013-01-25 12:02:00,
2013-01-25 07:07:00,5.2,-3.1,30.41,WSW,243,0.0,12.0,68,0.00,,,0.00,0.0,meteohub,2013-01-25 12:07:00,
2013-01-25 07:12:00,5.2,-3.1,30.41,West,272,1.0,12.0,68,0.00,,,0.00,5.0,meteohub,2013-01-25 12:12:00,
2013-01-25 07:17:00,5.2,-3.1,30.42,WNW,290,4.0,9.0,68,0.00,,,0.00,0.0,meteohub,2013-01-25 12:17:00,
2013-01-25 07:22:00,5.2,-3.1,30.42,West,262,0.0,9.0,68,0.00,,,0.00,0.0,meteohub,2013-01-25 12:22:00,
2013-01-25 07:27:00,5.2,-3.1,30.42,WNW,292,3.0,9.0,68,0.00,,,0.00,7.0,meteohub,2013-01-25 12:27:00,
2013-01-25 07:32:00,5.2,-3.1,30.42,SW,233,2.0,7.0,68,0.00,,,0.00,11.0,meteohub,2013-01-25 12:32:00,
2013-01-25 07:37:00,5.2,-2.7,30.42,WNW,302,1.0,7.0,69,0.00,,,0.00,14.0,meteohub,2013-01-25 12:37:00,
2013-01-25 07:42:00,5.2,-3.1,30.42,North,0,1.0,7.0,68,0.00,,,0.00,16.0,meteohub,2013-01-25 12:42:00,
2013-01-25 07:47:00,5.2,-3.1,30.42,NW,319,1.0,10.0,68,0.00,,,0.00,21.0,meteohub,2013-01-25 12:47:00,
2013-01-25 07:52:00,5.4,-2.6,30.43,West,267,1.0,10.0,69,0.00,,,0.00,26.0,meteohub,2013-01-25 12:52:00,
2013-01-25 07:57:00,5.4,-2.9,30.43,West,281,0.0,10.0,68,0.00,,,0.00,30.0,meteohub,2013-01-25 12:57:00,
2013-01-25 08:02:00,5.4,-2.6,30.43,West,277,0.0,8.0,69,0.00,,,0.00,33.0,meteohub,2013-01-25 13:02:00,
2013-01-25 08:07:00,5.4,-2.9,30.43,WNW,292,0.0,8.0,68,0.00,,,0.00,40.0,meteohub,2013-01-25 13:07:00,
2013-01-25 08:12:00,5.4,-2.9,30.43,North,5,1.0,8.0,68,0.00,,,0.00,49.0,meteohub,2013-01-25 13:12:00,
2013-01-25 08:17:00,5.5,-2.7,30.43,WSW,255,2.0,7.0,68,0.00,,,0.00,53.0,meteohub,2013-01-25 13:17:00,
2013-01-25 08:22:00,5.5,-2.7,30.43,SW,219,0.0,7.0,68,0.00,,,0.00,54.0,meteohub,2013-01-25 13:22:00,
2013-01-25 08:27:00,5.7,-2.2,30.43,West,279,3.0,7.0,69,0.00,,,0.00,56.0,meteohub,2013-01-25 13:27:00,
2013-01-25 08:32:00,5.7,-2.2,30.43,WNW,283,1.0,7.0,69,0.00,,,0.00,65.0,meteohub,2013-01-25 13:32:00,
2013-01-25 08:37:00,6.1,-1.8,30.43,West,269,5.0,7.0,69,0.00,,,0.00,76.0,meteohub,2013-01-25 13:37:00,
2013-01-25 08:42:00,6.3,-1.7,30.43,WNW,286,3.0,7.0,69,0.00,,,0.00,84.0,meteohub,2013-01-25 13:42:00,
2013-01-25 08:47:00,6.4,-1.5,30.43,WNW,284,1.0,7.0,69,0.00,,,0.00,100.0,meteohub,2013-01-25 13:47:00,
2013-01-25 08:53:00,7.0,-1.1,30.43,WNW,289,4.0,7.0,69,0.00,,,0.00,105.0,meteohub,2013-01-25 13:53:00,
2013-01-25 08:58:00,7.2,-0.9,30.43,WNW,302,6.0,7.0,69,0.00,,,0.00,116.0,meteohub,2013-01-25 13:58:00,
2013-01-25 09:04:00,7.5,-0.8,30.43,NNW,345,4.0,12.0,68,0.00,,,0.00,113.0,meteohub,2013-01-25 14:04:00,
2013-01-25 09:09:00,7.7,-0.6,30.43,NNW,343,0.0,12.0,68,0.00,,,0.00,128.0,meteohub,2013-01-25 14:09:00,
2013-01-25 09:14:00,8.1,-0.2,30.43,NW,304,5.0,12.0,68,0.00,,,0.00,132.0,meteohub,2013-01-25 14:14:00,
2013-01-25 09:19:00,8.1,-0.2,30.43,SW,217,1.0,11.0,68,0.00,,,0.00,123.0,meteohub,2013-01-25 14:19:00,
2013-01-25 09:25:00,8.4,0.0,30.43,WSW,254,1.0,11.0,68,0.00,,,0.00,148.0,meteohub,2013-01-25 14:25:00,
2013-01-25 09:30:00,8.8,0.3,30.43,WNW,300,5.0,11.0,68,0.00,,,0.00,142.0,meteohub,2013-01-25 14:30:00,
2013-01-25 09:35:00,9.0,0.5,30.42,NE,39,0.0,12.0,68,0.00,,,0.00,160.0,meteohub,2013-01-25 14:35:00,
2013-01-25 09:41:00,9.1,0.7,30.42,WNW,296,9.0,12.0,68,0.00,,,0.00,167.0,meteohub,2013-01-25 14:41:00,
2013-01-25 09:46:00,9.3,0.9,30.42,West,265,4.0,12.0,68,0.00,,,0.00,162.0,meteohub,2013-01-25 14:46:00,
2013-01-25 09:51:00,9.7,1.2,30.41,WNW,294,2.0,14.0,68,0.00,,,0.00,172.0,meteohub,2013-01-25 14:51:00,
2013-01-25 09:57:00,9.7,1.2,30.41,West,269,4.0,14.0,68,0.00,,,0.00,181.0,meteohub,2013-01-25 14:57:00,
2013-01-25 10:02:00,9.9,1.4,30.41,WNW,298,2.0,14.0,68,0.00,,,0.00,211.0,meteohub,2013-01-25 15:02:00,
2013-01-25 10:07:00,9.9,1.0,30.41,WNW,301,4.0,13.0,67,0.00,,,0.00,227.0,meteohub,2013-01-25 15:07:00,
2013-01-25 10:12:00,9.9,1.0,30.40,WNW,291,0.0,13.0,67,0.00,,,0.00,264.0,meteohub,2013-01-25 15:12:00,
2013-01-25 10:17:00,10.2,1.8,30.40,WNW,297,0.0,13.0,68,0.00,,,0.00,267.0,meteohub,2013-01-25 15:17:00,
2013-01-25 10:22:00,10.6,1.8,30.40,WSW,257,3.0,11.0,67,0.00,,,0.00,241.0,meteohub,2013-01-25 15:22:00,
2013-01-25 10:27:00,10.8,1.6,30.39,NW,304,7.0,11.0,66,0.00,,,0.00,318.0,meteohub,2013-01-25 15:27:00,
2013-01-25 10:32:00,10.9,1.4,30.39,WSW,254,5.0,11.0,65,0.00,,,0.00,345.0,meteohub,2013-01-25 15:32:00,
2013-01-25 10:37:00,11.1,1.6,30.39,West,281,2.0,11.0,65,0.00,,,0.00,294.0,meteohub,2013-01-25 15:37:00,
2013-01-25 10:42:00,11.5,1.8,30.39,WSW,257,1.0,10.0,64,0.00,,,0.00,309.0,meteohub,2013-01-25 15:42:00,
2013-01-25 10:47:00,11.7,1.8,30.39,West,273,2.0,10.0,64,0.00,,,0.00,357.0,meteohub,2013-01-25 15:47:00,
2013-01-25 10:52:00,12.0,1.8,30.38,WNW,295,8.0,10.0,63,0.00,,,0.00,301.0,meteohub,2013-01-25 15:52:00,
2013-01-25 10:57:00,12.0,1.6,30.38,NW,310,6.0,12.0,62,0.00,,,0.00,330.0,meteohub,2013-01-25 15:57:00,
2013-01-25 11:02:00,12.2,1.8,30.38,NW,313,1.0,12.0,62,0.00,,,0.00,350.0,meteohub,2013-01-25 16:02:00,
2013-01-25 11:07:00,12.4,1.8,30.38,NNW,348,3.0,12.0,62,0.00,,,0.00,445.0,meteohub,2013-01-25 16:07:00,
2013-01-25 11:12:00,12.7,1.8,30.37,WNW,284,3.0,12.0,61,0.00,,,0.00,432.0,meteohub,2013-01-25 16:12:00,
2013-01-25 11:17:00,12.9,1.9,30.37,WNW,284,6.0,11.0,61,0.00,,,0.00,371.0,meteohub,2013-01-25 16:17:00,
2013-01-25 11:22:00,13.1,1.8,30.36,North,0,0.0,11.0,60,0.00,,,0.00,325.0,meteohub,2013-01-25 16:22:00,
2013-01-25 11:27:00,13.3,1.9,30.36,North,0,2.0,11.0,60,0.00,,,0.00,362.0,meteohub,2013-01-25 16:27:00,
2013-01-25 11:32:00,13.1,1.4,30.36,NE,40,6.0,11.0,59,0.00,,,0.00,279.0,meteohub,2013-01-25 16:32:00,
2013-01-25 11:37:00,13.3,1.9,30.35,NNW,342,2.0,11.0,60,0.00,,,0.00,218.0,meteohub,2013-01-25 16:37:00,
2013-01-25 11:42:00,13.5,2.1,30.35,NNE,14,1.0,11.0,60,0.00,,,0.00,239.0,meteohub,2013-01-25 16:42:00,
2013-01-25 11:47:00,13.8,2.5,30.35,WNW,292,7.0,11.0,60,0.00,,,0.00,308.0,meteohub,2013-01-25 16:47:00,
2013-01-25 11:52:00,13.8,2.1,30.34,West,271,4.0,12.0,59,0.00,,,0.00,271.0,meteohub,2013-01-25 16:52:00,
2013-01-25 11:57:00,13.8,1.8,30.34,WNW,290,1.0,12.0,58,0.00,,,0.00,288.0,meteohub,2013-01-25 16:57:00,
2013-01-25 12:02:00,14.2,2.1,30.34,North,0,2.0,11.0,58,0.00,,,0.00,267.0,meteohub,2013-01-25 17:02:00,
2013-01-25 12:07:00,14.4,2.3,30.33,NW,309,4.0,11.0,58,0.00,,,0.00,248.0,meteohub,2013-01-25 17:07:00,
2013-01-25 12:12:00,14.5,2.1,30.33,WNW,282,5.0,10.0,57,0.00,,,0.00,207.0,meteohub,2013-01-25 17:12:00,
2013-01-25 12:17:00,15.1,2.7,30.32,WNW,290,6.0,10.0,57,0.00,,,0.00,229.0,meteohub,2013-01-25 17:17:00,
2013-01-25 12:23:00,15.1,2.1,30.32,NE,51,0.0,10.0,56,0.00,,,0.00,325.0,meteohub,2013-01-25 17:23:00,
2013-01-25 12:28:00,15.1,2.1,30.32,NNW,327,1.0,10.0,56,0.00,,,0.00,193.0,meteohub,2013-01-25 17:28:00,
2013-01-25 12:33:00,15.3,2.3,30.31,SSW,211,3.0,10.0,56,0.00,,,0.00,299.0,meteohub,2013-01-25 17:33:00,
2013-01-25 12:39:00,15.1,1.8,30.31,NNW,338,0.0,10.0,55,0.00,,,0.00,141.0,meteohub,2013-01-25 17:39:00,
2013-01-25 12:44:00,15.3,2.3,30.30,NNW,340,0.0,7.0,56,0.00,,,0.00,193.0,meteohub,2013-01-25 17:44:00,
2013-01-25 12:49:00,15.4,2.1,30.29,NW,307,0.0,6.0,55,0.00,,,0.00,132.0,meteohub,2013-01-25 17:49:00,
2013-01-25 12:55:00,15.8,2.5,30.29,North,0,0.0,6.0,55,0.00,,,0.00,281.0,meteohub,2013-01-25 17:55:00,
2013-01-25 13:00:00,15.6,2.3,30.28,NNE,28,0.0,5.0,55,0.00,,,0.00,248.0,meteohub,2013-01-25 18:00:00,
2013-01-25 13:05:00,16.0,2.7,30.27,ENE,65,1.0,5.0,55,0.00,,,0.00,209.0,meteohub,2013-01-25 18:05:00,
2013-01-25 13:11:00,16.5,3.6,30.27,ENE,76,0.0,5.0,56,0.00,,,0.00,292.0,meteohub,2013-01-25 18:11:00,
2013-01-25 13:16:00,16.7,2.5,30.26,WSW,254,1.0,5.0,53,0.00,,,0.00,345.0,meteohub,2013-01-25 18:16:00,
2013-01-25 13:21:00,16.9,2.3,30.26,SW,223,0.0,5.0,52,0.00,,,0.00,341.0,meteohub,2013-01-25 18:21:00,
2013-01-25 13:27:00,17.2,2.7,30.25,West,265,2.0,3.0,52,0.00,,,0.00,306.0,meteohub,2013-01-25 18:27:00,
2013-01-25 13:32:00,17.4,2.8,30.25,NE,35,4.0,4.0,52,0.00,,,0.00,292.0,meteohub,2013-01-25 18:32:00,
2013-01-25 13:37:00,17.6,2.5,30.25,NW,315,1.0,4.0,51,0.00,,,0.00,255.0,meteohub,2013-01-25 18:37:00,
2013-01-25 13:42:00,17.4,1.6,30.25,WNW,283,0.0,4.0,49,0.00,,,0.00,236.0,meteohub,2013-01-25 18:42:00,
2013-01-25 13:47:00,17.2,1.4,30.25,WNW,294,4.0,5.0,49,0.00,,,0.00,232.0,meteohub,2013-01-25 18:47:00,
2013-01-25 13:52:00,17.2,1.8,30.25,NW,325,1.0,5.0,50,0.00,,,0.00,232.0,meteohub,2013-01-25 18:52:00,
2013-01-25 13:57:00,17.4,1.9,30.24,South,184,0.0,5.0,50,0.00,,,0.00,188.0,meteohub,2013-01-25 18:57:00,
2013-01-25 14:02:00,17.4,2.3,30.24,NE,56,0.0,5.0,51,0.00,,,0.00,174.0,meteohub,2013-01-25 19:02:00,
2013-01-25 14:08:00,17.8,2.7,30.24,NW,322,2.0,5.0,51,0.00,,,0.00,169.0,meteohub,2013-01-25 19:08:00,
2013-01-25 14:13:00,17.8,2.7,30.24,ENE,63,0.0,5.0,51,0.00,,,0.00,155.0,meteohub,2013-01-25 19:13:00,
2013-01-25 14:18:00,18.0,3.4,30.24,ENE,63,1.0,4.0,52,0.00,,,0.00,156.0,meteohub,2013-01-25 19:18:00,
2013-01-25 14:24:00,18.0,2.5,30.24,WNW,283,1.0,4.0,50,0.00,,,0.00,171.0,meteohub,2013-01-25 19:24:00,
2013-01-25 14:29:00,18.0,1.9,30.23,WNW,287,0.0,3.0,49,0.00,,,0.00,186.0,meteohub,2013-01-25 19:29:00,
2013-01-25 14:34:00,18.1,3.0,30.23,WNW,287,0.0,3.0,51,0.00,,,0.00,190.0,meteohub,2013-01-25 19:34:00,
2013-01-25 14:40:00,18.3,2.3,30.23,WNW,287,1.0,3.0,49,0.00,,,0.00,185.0,meteohub,2013-01-25 19:40:00,
2013-01-25 14:45:00,18.3,2.3,30.23,SE,130,1.0,3.0,49,0.00,,,0.00,174.0,meteohub,2013-01-25 19:45:00,
2013-01-25 14:50:00,18.7,3.6,30.23,SSW,192,0.0,2.0,51,0.00,,,0.00,144.0,meteohub,2013-01-25 19:50:00,
2013-01-25 14:56:00,18.7,2.7,30.22,North,5,0.0,3.0,49,0.00,,,0.00,113.0,meteohub,2013-01-25 19:56:00,
2013-01-25 15:01:00,18.7,3.2,30.22,ENE,71,0.0,3.0,50,0.00,,,0.00,109.0,meteohub,2013-01-25 20:01:00,
2013-01-25 15:06:00,18.7,3.2,30.22,ENE,71,0.0,3.0,50,0.00,,,0.00,121.0,meteohub,2013-01-25 20:06:00,
2013-01-25 15:12:00,18.5,3.4,30.22,ENE,71,1.0,3.0,51,0.00,,,0.00,120.0,meteohub,2013-01-25 20:12:00,
2013-01-25 15:17:00,18.5,3.0,30.22,ENE,66,0.0,3.0,50,0.00,,,0.00,107.0,meteohub,2013-01-25 20:17:00,
2013-01-25 15:22:00,18.7,3.6,30.22,North,5,0.0,2.0,51,0.00,,,0.00,84.0,meteohub,2013-01-25 20:22:00,
2013-01-25 15:27:00,18.5,3.4,30.22,ENE,78,0.0,3.0,51,0.00,,,0.00,77.0,meteohub,2013-01-25 20:27:00,
2013-01-25 15:32:00,18.7,3.9,30.21,ENE,78,0.0,3.0,52,0.00,,,0.00,88.0,meteohub,2013-01-25 20:32:00,
2013-01-25 15:37:00,18.5,3.0,30.21,ENE,73,1.0,3.0,50,0.00,,,0.00,95.0,meteohub,2013-01-25 20:37:00,
2013-01-25 15:43:00,18.5,2.1,30.21,NE,45,0.0,3.0,48,0.00,,,0.00,98.0,meteohub,2013-01-25 20:43:00,
2013-01-25 15:48:00,18.5,3.0,30.21,NE,45,0.0,2.0,50,0.00,,,0.00,84.0,meteohub,2013-01-25 20:48:00,
2013-01-25 15:53:00,18.5,2.1,30.21,ENE,77,0.0,2.0,48,0.00,,,0.00,65.0,meteohub,2013-01-25 20:53:00,
2013-01-25 15:59:00,18.3,2.3,30.21,ENE,78,3.0,3.0,49,0.00,,,0.00,47.0,meteohub,2013-01-25 20:59:00,
2013-01-25 16:04:00,18.3,2.8,30.20,East,85,1.0,2.0,50,0.00,,,0.00,42.0,meteohub,2013-01-25 21:04:00,
2013-01-25 16:09:00,18.1,2.1,30.20,East,84,2.0,4.0,49,0.00,,,0.00,35.0,meteohub,2013-01-25 21:09:00,
2013-01-25 16:14:00,18.0,2.5,30.21,East,84,0.0,4.0,50,0.00,,,0.00,26.0,meteohub,2013-01-25 21:14:00,
2013-01-25 16:20:00,18.0,2.5,30.20,East,84,1.0,3.0,50,0.00,,,0.00,19.0,meteohub,2013-01-25 21:20:00,
2013-01-25 16:25:00,18.0,2.5,30.20,East,84,0.0,3.0,50,0.00,,,0.00,16.0,meteohub,2013-01-25 21:25:00,
2013-01-25 16:30:00,17.8,2.7,30.20,East,84,0.0,2.0,51,0.00,,,0.00,12.0,meteohub,2013-01-25 21:30:00,
2013-01-25 16:36:00,17.8,2.3,30.20,East,84,0.0,2.0,50,0.00,,,0.00,12.0,meteohub,2013-01-25 21:36:00,
2013-01-25 16:41:00,17.8,2.3,30.20,East,84,0.0,1.0,50,0.00,,,0.00,11.0,meteohub,2013-01-25 21:41:00,
2013-01-25 16:46:00,17.8,2.7,30.20,East,84,0.0,1.0,51,0.00,,,0.00,9.0,meteohub,2013-01-25 21:46:00,
2013-01-25 16:52:00,17.8,3.2,30.19,East,84,0.0,2.0,52,0.00,,,0.00,0.0,meteohub,2013-01-25 21:52:00,
2013-01-25 16:57:00,17.8,3.2,30.19,East,84,0.0,2.0,52,0.00,,,0.00,0.0,meteohub,2013-01-25 21:57:00,
2013-01-25 17:02:00,17.6,3.0,30.19,East,84,0.0,2.0,52,0.00,,,0.00,0.0,meteohub,2013-01-25 22:02:00,
2013-01-25 17:07:00,17.4,2.8,30.18,East,84,0.0,2.0,52,0.00,,,0.00,0.0,meteohub,2013-01-25 22:07:00,
2013-01-25 17:12:00,17.4,2.8,30.18,East,84,0.0,2.0,52,0.00,,,0.00,0.0,meteohub,2013-01-25 22:12:00,
2013-01-25 17:17:00,17.4,2.8,30.18,East,84,0.0,2.0,52,0.00,,,0.00,0.0,meteohub,2013-01-25 22:17:00,
2013-01-25 17:22:00,17.4,3.2,30.18,East,84,1.0,2.0,53,0.00,,,0.00,0.0,meteohub,2013-01-25 22:22:00,
2013-01-25 17:27:00,17.4,3.2,30.17,SE,127,1.0,3.0,53,0.00,,,0.00,0.0,meteohub,2013-01-25 22:27:00,
2013-01-25 17:32:00,17.4,3.2,30.17,East,97,2.0,3.0,53,0.00,,,0.00,0.0,meteohub,2013-01-25 22:32:00,
2013-01-25 17:37:00,17.4,3.2,30.17,SE,136,0.0,4.0,53,0.00,,,0.00,0.0,meteohub,2013-01-25 22:37:00,
2013-01-25 17:42:00,17.2,3.0,30.17,SE,135,0.0,4.0,53,0.00,,,0.00,0.0,meteohub,2013-01-25 22:42:00,
2013-01-25 17:47:00,17.2,3.0,30.16,SE,136,0.0,3.0,53,0.00,,,0.00,0.0,meteohub,2013-01-25 22:47:00,
2013-01-25 17:52:00,17.2,3.4,30.17,ESE,104,2.0,3.0,54,0.00,,,0.00,0.0,meteohub,2013-01-25 22:52:00,
2013-01-25 17:57:00,17.1,4.5,30.17,ESE,105,0.0,3.0,57,0.00,,,0.00,0.0,meteohub,2013-01-25 22:57:00,
2013-01-25 18:02:00,16.9,5.4,30.16,SE,127,1.0,3.0,60,0.00,,,0.00,0.0,meteohub,2013-01-25 23:02:00,
2013-01-25 18:07:00,16.9,5.7,30.17,East,94,0.0,3.0,61,0.00,,,0.00,0.0,meteohub,2013-01-25 23:07:00,
2013-01-25 18:12:00,16.7,6.6,30.17,East,89,0.0,4.0,64,0.00,,,0.00,0.0,meteohub,2013-01-25 23:12:00,
2013-01-25 18:17:00,16.5,7.2,30.16,East,89,0.0,4.0,66,0.00,,,0.00,0.0,meteohub,2013-01-25 23:17:00,
2013-01-25 18:22:00,16.3,7.7,30.16,East,89,0.0,4.0,68,0.00,,,0.00,0.0,meteohub,2013-01-25 23:22:00,
2013-01-25 18:27:00,16.2,7.7,30.16,East,89,0.0,4.0,69,0.00,,,0.00,0.0,meteohub,2013-01-25 23:27:00,
2013-01-25 18:32:00,16.2,8.1,30.16,East,89,1.0,4.0,70,0.00,,,0.00,0.0,meteohub,2013-01-25 23:32:00,
2013-01-25 18:37:00,16.0,8.2,30.16,East,89,0.0,4.0,71,0.00,,,0.00,0.0,meteohub,2013-01-25 23:37:00,
2013-01-25 18:42:00,15.8,8.4,30.16,East,89,0.0,2.0,72,0.00,,,0.00,0.0,meteohub,2013-01-25 23:42:00,
2013-01-25 18:47:00,15.6,8.6,30.15,East,89,0.0,2.0,73,0.00,,,0.00,0.0,meteohub,2013-01-25 23:47:00,
2013-01-25 18:52:00,15.4,8.6,30.15,East,89,0.0,2.0,74,0.00,,,0.00,0.0,meteohub,2013-01-25 23:52:00,
2013-01-25 18:57:00,15.4,9.0,30.15,East,89,0.0,2.0,75,0.00,,,0.00,0.0,meteohub,2013-01-25 23:57:00,
2013-01-25 19:02:00,15.4,9.3,30.15,East,89,0.0,1.0,76,0.00,,,0.00,0.0,meteohub,2013-01-26 00:02:00,
2013-01-25 19:07:00,15.4,9.5,30.15,East,89,0.0,1.0,77,0.00,,,0.00,0.0,meteohub,2013-01-26 00:07:00,
2013-01-25 19:12:00,15.3,9.3,30.15,East,89,0.0,2.0,77,0.00,,,0.00,0.0,meteohub,2013-01-26 00:12:00,
2013-01-25 19:17:00,15.3,9.7,30.15,East,89,0.0,2.0,78,0.00,,,0.00,0.0,meteohub,2013-01-26 00:17:00,
2013-01-25 19:22:00,15.3,9.9,30.14,East,89,0.0,2.0,79,0.00,,,0.00,0.0,meteohub,2013-01-26 00:22:00,
2013-01-25 19:27:00,15.3,9.9,30.14,East,89,0.0,1.0,79,0.00,,,0.00,0.0,meteohub,2013-01-26 00:27:00,
2013-01-25 19:32:00,15.1,10.0,30.14,East,89,0.0,1.0,80,0.00,,,0.00,0.0,meteohub,2013-01-26 00:32:00,
2013-01-25 19:37:00,15.1,10.0,30.14,East,89,2.0,3.0,80,0.00,,,0.00,0.0,meteohub,2013-01-26 00:37:00,
2013-01-25 19:42:00,15.1,10.2,30.14,East,89,0.0,3.0,81,0.00,,,0.00,0.0,meteohub,2013-01-26 00:42:00,
2013-01-25 19:47:00,14.9,10.2,30.14,East,89,2.0,3.0,81,0.00,,,0.00,0.0,meteohub,2013-01-26 00:47:00,
2013-01-25 19:52:00,14.9,10.2,30.13,East,89,0.0,3.0,81,0.00,,,0.00,0.0,meteohub,2013-01-26 00:52:00,
2013-01-25 19:57:00,14.7,10.2,30.13,East,89,0.0,3.0,82,0.00,,,0.00,0.0,meteohub,2013-01-26 00:57:00,
2013-01-25 20:02:00,14.7,10.2,30.13,East,88,0.0,3.0,82,0.00,,,0.00,0.0,meteohub,2013-01-26 01:02:00,
2013-01-25 20:08:00,14.7,10.2,30.12,East,88,0.0,3.0,82,0.00,,,0.00,0.0,meteohub,2013-01-26 01:08:00,
2013-01-25 20:13:00,14.7,10.6,30.12,East,88,0.0,3.0,83,0.00,,,0.00,0.0,meteohub,2013-01-26 01:13:00,
2013-01-25 20:18:00,14.7,10.6,30.13,East,88,0.0,1.0,83,0.00,,,0.00,0.0,meteohub,2013-01-26 01:18:00,
2013-01-25 20:24:00,14.7,10.6,30.12,East,88,0.0,1.0,83,0.00,,,0.00,0.0,meteohub,2013-01-26 01:24:00,
2013-01-25 20:29:00,14.7,10.6,30.12,East,88,0.0,1.0,83,0.00,,,0.00,0.0,meteohub,2013-01-26 01:29:00,
2013-01-25 20:34:00,14.7,10.6,30.12,East,88,0.0,1.0,83,0.00,,,0.00,0.0,meteohub,2013-01-26 01:34:00,
2013-01-25 20:40:00,14.5,10.4,30.12,NNW,342,0.0,1.0,83,0.00,,,0.00,0.0,meteohub,2013-01-26 01:40:00,
2013-01-25 20:45:00,14.5,10.6,30.12,NNW,343,0.0,2.0,84,0.00,,,0.00,0.0,meteohub,2013-01-26 01:45:00,
2013-01-25 20:50:00,14.5,10.6,30.12,North,351,0.0,2.0,84,0.00,,,0.00,0.0,meteohub,2013-01-26 01:50:00,
2013-01-25 20:56:00,14.5,10.6,30.12,North,351,0.0,2.0,84,0.00,,,0.00,0.0,meteohub,2013-01-26 01:56:00,
2013-01-25 21:01:00,14.5,10.6,30.12,North,355,0.0,2.0,84,0.00,,,0.00,0.0,meteohub,2013-01-26 02:01:00,
2013-01-25 21:06:00,14.5,10.6,30.12,North,355,0.0,2.0,84,0.00,,,0.00,0.0,meteohub,2013-01-26 02:06:00,
2013-01-25 21:12:00,14.5,10.6,30.12,North,355,0.0,2.0,84,0.00,,,0.00,0.0,meteohub,2013-01-26 02:12:00,
2013-01-25 21:17:00,14.5,10.6,30.12,North,355,1.0,2.0,84,0.00,,,0.00,0.0,meteohub,2013-01-26 02:17:00,
2013-01-25 21:22:00,14.5,10.6,30.12,North,355,0.0,2.0,84,0.00,,,0.00,0.0,meteohub,2013-01-26 02:22:00,
2013-01-25 21:27:00,14.5,10.6,30.11,North,355,0.0,2.0,84,0.00,,,0.00,0.0,meteohub,2013-01-26 02:27:00,
2013-01-25 21:32:00,14.5,10.6,30.11,North,0,0.0,2.0,84,0.00,,,0.00,0.0,meteohub,2013-01-26 02:32:00,
2013-01-25 21:37:00,14.5,10.6,30.11,North,11,0.0,2.0,84,0.00,,,0.00,0.0,meteohub,2013-01-26 02:37:00,
2013-01-25 21:42:00,14.5,10.6,30.11,NE,39,2.0,2.0,84,0.00,,,0.00,0.0,meteohub,2013-01-26 02:42:00,
2013-01-25 21:47:00,14.5,10.6,30.12,NE,54,0.0,2.0,84,0.00,,,0.00,0.0,meteohub,2013-01-26 02:47:00,
2013-01-25 21:53:00,14.4,10.8,30.11,NE,54,0.0,2.0,85,0.00,,,0.00,0.0,meteohub,2013-01-26 02:53:00,
2013-01-25 21:58:00,14.4,10.8,30.11,NE,54,0.0,2.0,85,0.00,,,0.00,0.0,meteohub,2013-01-26 02:58:00,
2013-01-25 22:03:00,14.4,10.8,30.11,NE,54,0.0,2.0,85,0.00,,,0.00,0.0,meteohub,2013-01-26 03:03:00,
2013-01-25 22:09:00,14.4,10.8,30.11,NE,54,0.0,2.0,85,0.00,,,0.00,0.0,meteohub,2013-01-26 03:09:00,
2013-01-25 22:14:00,14.4,10.8,30.11,NE,54,0.0,2.0,85,0.00,,,0.00,0.0,meteohub,2013-01-26 03:14:00,
2013-01-25 22:19:00,14.2,10.6,30.11,North,350,2.0,2.0,85,0.00,,,0.00,0.0,meteohub,2013-01-26 03:19:00,
2013-01-25 22:25:00,14.2,10.6,30.11,North,350,0.0,2.0,85,0.00,,,0.00,0.0,meteohub,2013-01-26 03:25:00,
2013-01-25 22:30:00,14.2,10.6,30.11,NNE,28,0.0,2.0,85,0.00,,,0.00,0.0,meteohub,2013-01-26 03:30:00,
2013-01-25 22:35:00,14.2,10.6,30.11,NE,51,0.0,2.0,85,0.00,,,0.00,0.0,meteohub,2013-01-26 03:35:00,
2013-01-25 22:41:00,14.2,10.6,30.11,NE,51,0.0,2.0,85,0.00,,,0.00,0.0,meteohub,2013-01-26 03:41:00,
2013-01-25 22:46:00,14.2,10.6,30.11,NE,51,0.0,2.0,85,0.00,,,0.00,0.0,meteohub,2013-01-26 03:46:00,
2013-01-25 22:51:00,14.2,10.6,30.11,NE,51,0.0,1.0,85,0.00,,,0.00,0.0,meteohub,2013-01-26 03:51:00,
2013-01-25 22:57:00,14.0,10.4,30.11,NE,51,0.0,2.0,85,0.00,,,0.00,0.0,meteohub,2013-01-26 03:57:00,
2013-01-25 23:02:00,13.8,10.2,30.11,ENE,67,0.0,2.0,85,0.00,,,0.00,0.0,meteohub,2013-01-26 04:02:00,
2013-01-25 23:07:00,13.8,10.2,30.11,ENE,67,0.0,2.0,85,0.00,,,0.00,0.0,meteohub,2013-01-26 04:07:00,
2013-01-25 23:12:00,13.8,10.2,30.10,ENE,67,0.0,2.0,85,0.00,,,0.00,0.0,meteohub,2013-01-26 04:12:00,
2013-01-25 23:17:00,13.6,10.0,30.10,ENE,67,0.0,2.0,85,0.00,,,0.00,0.0,meteohub,2013-01-26 04:17:00,
2013-01-25 23:22:00,13.6,10.0,30.10,ENE,67,0.0,1.0,85,0.00,,,0.00,0.0,meteohub,2013-01-26 04:22:00,
2013-01-25 23:27:00,13.6,10.0,30.10,ENE,67,0.0,0.0,85,0.00,,,0.00,0.0,meteohub,2013-01-26 04:27:00,
2013-01-25 23:32:00,13.5,9.9,30.10,ENE,67,0.0,0.0,85,0.00,,,0.00,0.0,meteohub,2013-01-26 04:32:00,
2013-01-25 23:37:00,13.5,9.9,30.10,ENE,67,0.0,0.0,85,0.00,,,0.00,0.0,meteohub,2013-01-26 04:37:00,
2013-01-25 23:42:00,13.3,9.3,30.10,ENE,67,0.0,0.0,84,0.00,,,0.00,0.0,meteohub,2013-01-26 04:42:00,
2013-01-25 23:47:00,13.3,9.3,30.10,ENE,67,0.0,0.0,84,0.00,,,0.00,0.0,meteohub,2013-01-26 04:47:00,
2013-01-25 23:52:00,12.9,9.0,30.09,ENE,67,0.0,0.0,84,0.00,,,0.00,0.0,meteohub,2013-01-26 04:52:00,
2013-01-25 23:57:00,12.9,9.0,30.10,ENE,67,0.0,0.0,84,0.00,,,0.00,0.0,meteohub,2013-01-26 04:57:00,